THORAD AGENA D DEB, 5392

Orbit data source: Space-Track

THORAD AGENA D DEB, 5392 is space debris in SSO originally from a launch on Wed, 08 Apr 1970 UTC launched from the Air Force Western Test Range (AFWTR). Debris objects in space refer to the collection of defunct objects orbiting the Earth. Examples of debris include non-operational satellites, rocket bodies, and fragments generated from explosions, collisions, or faulty payload assembly.

Loading next visibility...
Identifier
5392, 1970-025KX
Orbit
SSO
Country
Flag of USUS
Related business
Manufacturer
Unknown
Mission
Spacecraft
Bus & Motor
Unknown
Mass
Unknown
Launch date (UTC)
1970-04-08 (56 years ago)
Launch vehicle
Unknown
Launch site
Air Force Western Test Range (AFWTR)
Object type
Payload
Rocket body
Debris
Shape & HBR
Unknown shape, 0.1 m
Radar Cross Section
Medium (>0.1 m² and <1 m²)

Expand to show TLE details & history
Last TLE update: 23 hours ago

TLE from 23 hours ago
0 THORAD AGENA D DEB
1 05392U 70025KX  26255.32201800  .00001159  00000-0  66090-3 0  9999
2 05392 100.0411 218.4842 0046212  32.9562 327.4471 14.11587122856817
Epoch: 2026-09-12T07:43Z
TLE epoch observation values (Epoch: 2026-09-12T07:43:42.355Z)
Latitude
-0.00005°
Longitude
111.22504°
Altitude
828.672 km
Speed
7.453 km/s
True Right ascension
14h 33m 56s
True Declination
0° 00' 00"
Sunlit
Object was in daylight at epoch
Visualization orbit readout
Latitude
Unknown
Longitude
Unknown
Altitude
Unknown
Speed
Unknown
Apparent Right ascension
Unknown
Apparent Declination
Unknown
Sunlit
N/A
Visualization observer readout
Local Sidereal Time
23:03:09
Azimuth
Unknown
Elevation
Unknown
Doppler factor
Unknown
Orbital elements
Apogee altitude
884.592 km
Perigee altitude
817.776 km
Semi-major axis
7,229.321 km
Eccentricity
0.00462
Inclination
100.0411°
RAAN
218.4842°
Arg. of periapsis
32.9562°
True anomaly
327.16077°
Mean anomaly
327.4471°
Eccentric anomaly
327.30407°
Mean motion
3.53099 °/min
Orbital period
101.95 mins
BSTAR
0.0006609
Loading maneuver chart data...
Computing Atmospheric mass density...

Documentation

Showing up to 5 results
|